Facebook Twitter

Wetterstation Faßberg

Messwerte
  Temperatur Wetter Niederschlag Luftdruck Wind
So, 05:20 Uhr -2° - - 1036 hPa 11 km/h SO
So, 05:00 Uhr -3° - - 1037.2 hPa 7 km/h SO
So, 04:00 Uhr -2° - - 1037.2 hPa 14 km/h SO
So, 03:00 Uhr -2° - - 1037.7 hPa 11 km/h SO
So, 02:00 Uhr -3° - - 1038.5 hPa 11 km/h SO
So, 01:00 Uhr -4° - - 1039.4 hPa 7 km/h SO
So, 00:00 Uhr -5° - - 1039.5 hPa 11 km/h O
Sa, 23:00 Uhr -3° - - 1039.7 hPa 0 km/h O
Sa, 22:00 Uhr -3° - - 1039.7 hPa 0 km/h O
Sa, 21:00 Uhr -2° - - 1039.8 hPa 0 km/h O
Sa, 20:00 Uhr -3° - - 1039.6 hPa 7 km/h O
Sa, 19:00 Uhr -1° - 0 mm 1039.6 hPa 0 km/h O
Sa, 18:00 Uhr 0° - - 1039.1 hPa 4 km/h O
Sa, 17:00 Uhr 1° - - 1038.7 hPa 0 km/h O
Sa, 16:00 Uhr 4° - - 1038.8 hPa 7 km/h O
Sa, 15:00 Uhr 4° - - 1038.5 hPa 7 km/h N
Sa, 14:00 Uhr 5° - - 1038.2 hPa 7 km/h NO
Sa, 13:00 Uhr 4° - - 1038.2 hPa 4 km/h N
Sa, 12:00 Uhr 4° - - 1037.8 hPa 11 km/h O
Sa, 11:00 Uhr 3° - - 1037.3 hPa 11 km/h O

Alle Zeitangaben MEZ